STARLINK-1361 (45567 NORAD) Tracking and Keplerian Element Data

This shows tracking and keplerian element data for the satellite.

Feedback or suggestion? Click here.




ElementValue
Catalog45567
NameSTARLINK-1361
Epoch Orbit572
Epoch Day145.75001157
Epoch Year2020
RAAN241.7711
Inclination52.9992
Eccentricity0.0001199
Argument of Perigee74.6085
Mean Anonmoly291.8277
Mean Motion15.62737481
Decay Rate0.00050765
L11 45567U 20025AN 20145.75001157 .00050765 00000-0 55711-3 0 9999
L22 45567 52.9992 241.7711 0001199 74.6085 291.8277 15.62737481 5722

Live tracking and technical data element details for STARLINK-1361 (NORAD 45567). STARLINK-1361 can be tracked NOW for your location showing map with azimuth and elevation plus other details from your city location.

Track the satellite on the map from your city or location and see movement details for azimuth, elevation, latitude, longitude, range, height, and movement on the map or in text.







IsCatalogInMostPopularTable: catalog: 45567, numindb: 7
Update: records affected: 1



GetName: 45567 STARLINK-1361

Hit Count: updated at: Tue, 26 May 2020 04:01:40 GMT